Regional Weather Roundup
Issued by NWS

Home | Current Version | Previous Version | Graphics & Text | Print | Product List | Glossary On
Versions: 1 2 3 4 5 6 7 8 9 10 11 12 13 14 15 16 17 18 19 20 21 22 23 24 25 26 27
000
ASUS45 KBOU 251107
RWRCO

WEATHER ROUNDUP FOR COLORADO
NATIONAL WEATHER SERVICE DENVER/BOULDER CO
500 AM MDT TUE JUL 25 2017

NOTE: "FAIR" INDICATES FEW OR NO CLOUDS BELOW 12000 FEET WITH NO
SIGNIFICANT WEATHER AND/OR OBSTRUCTIONS TO VISIBILITY.

COZ001>005-013-030-031-251200-
...NORTHWEST COLORADO...

CITY           SKY/WX    TMP DP  RH WIND       PRES   REMARKS
CRAIG          CLOUDY    67  50  54 W9        30.22R
HAYDEN         MOCLDY    64  46  52 N5        30.25R
MEEKER         LGT RAIN  61  58  90 SW5       30.25S
RABBIT EARS PA PTSUNNY   52  41  66 NW10      30.51S
STEAMBOAT SPGS FAIR      61  46  58 CALM      30.26R
WALDEN         FAIR      57  43  58 S6        30.33R
$$

COZ006>008-011-251200-
...WEST CENTRAL VALLEYS...

CITY           SKY/WX    TMP DP  RH WIND       PRES   REMARKS
GRAND JUNCTION LGT RAIN  65  65 100 CALM      30.15S
MONTROSE       CLOUDY    64  61  90 CALM      30.23S
EAGLE          LGT RAIN  65  53  65 S3        30.27S
RIFLE          LGT RAIN  63  61  93 CALM      30.22R
DELTA          RAIN      67  61  80 E5        30.19S
NUCLA          CLOUDY    61  59  94 CALM      30.26S
$$

COZ017>023-064>068-251200-
...SOUTHWEST COLORADO...

CITY           SKY/WX    TMP DP  RH WIND       PRES   REMARKS
DURANGO        CLOUDY    61  57  87 W6        30.27R
CORTEZ         CLOUDY    64  62  93 NE3       30.21R
PAGOSA SPRINGS CLOUDY    60  56  88 CALM      30.35S
TELLURIDE      LGT RAIN  55  52  89 SE3       30.43S
WOLF CREEK PAS HVY RAIN  45  45 100 S6        30.67S
$$

COZ009-010-012-014-032>034-037-058>063-251200-
...CENTRAL COLORADO...

CITY           SKY/WX    TMP DP  RH WIND       PRES   REMARKS
ASPEN          CLOUDY    58  50  75 SW3       30.33S
BUENA VISTA    DRIZZLE   58  53  84 CALM      30.36F
COPPER MTN     CLOUDY    55  37  50 S12       30.64S
BERTHOUD PASS  MOCLDY    46  32  57 NW14      30.67R
COTTONWOOD PAS LGT RAIN  57  45  62 SW5       30.49F
GUNNISON       LGT RAIN  58  54  86 N6        30.37S
KREMMLING      MOCLDY    66  46  48 CALM      30.31R
LEADVILLE      LGT RAIN  53  44  71 S6        30.49R
SALIDA         FAIR      65  51  60 SW8       30.40S
SUNLIGHT       DRIZZLE   48  43  81 S3        30.56S
WILKERSON PASS CLOUDY    50  41  71 SW14G25   30.60R
$$

COZ069>075-251200-
...SAN LUIS VALLEY/SANGRE DE CRISTO MOUNTAINS...

CITY           SKY/WX    TMP DP  RH WIND       PRES   REMARKS
ALAMOSA        MOCLDY    58  55  90 E7        30.32S
DEL NORTE      MOCLDY    61  50  68 W9        30.37S
LA VETA PASS   NOT AVBL
SAGUACHE         N/A    N/A N/A N/A MISG        N/A
$$

COZ035-036-038>040-251200-
...NORTHERN COLORADO FRONT RANGE...

CITY           SKY/WX    TMP DP  RH WIND       PRES   REMARKS
DENVER INTL AP FAIR      71  50  47 SW10      30.05R
DMNS CITY PARK   N/A     70  48  45 SE7       30.05S
AURORA         PTCLDY    70  50  49 CALM      30.08R
FRONT RANGE AP FAIR      70  52  52 S9        30.06S
ERIE MUNI ARPT FAIR      61  50  68 CALM      30.03S
BOULDER MUN AP FAIR      70  45  40 CALM      30.04S
CENTENNIAL     FAIR      71  46  40 S10       30.09S
BROOMFIELD     FAIR      72  41  33 NW7       30.08R
FORT COLLINS   FAIR      67  49  52 N7        30.03S
LONGMONT       FAIR      65  49  55 CALM      30.04S
$$

COZ041-046-047-076>085-087-088-251200-
...PIKES PEAK/PALMER DIVIDE AND SOUTHERN FOOTHILLS...

CITY           SKY/WX    TMP DP  RH WIND       PRES   REMARKS
COLO. SPRINGS  MOCLDY    66  58  75 N8        30.16S
A. F. ACADEMY  FAIR      63  52  67 N7        30.17S
SCHRIEVER AFB  MOCLDY    65  55  68 N7        30.16S
CHEYENNE MTN   MOCLDY    72  42  33 CALM      30.16S
ELLICOTT       NOT AVBL
FALCON           N/A     64  52  64 SW3       30.22R
FORT CARSON    FAIR      66  52  59 NW7       30.12S
LIMON          FAIR      61  59  93 CALM      30.10S
MONUMENT HILL  FAIR      61  48  63 SW6       30.23R
CANON CITY     CLEAR     73  52  46 W8        30.10R
WALSENBURG     FAIR      73  54  49 W14       30.17S
TRINIDAD       FAIR      69  51  52 NW7       30.15R
$$

COZ042>045-048>051-090-091-251200-
...NORTHEAST COLORADO...

CITY           SKY/WX    TMP DP  RH WIND       PRES   REMARKS
GREELEY ARPT   FAIR      62  54  74 CALM      30.02R
AKRON          FAIR      68  60  75 S14       30.03S
BURLINGTON     FAIR      69  64  84 S15       30.04S
WRAY           NOT AVBL
YUMA           FAIR      66  55  68 S9        30.00S
STERLING       FAIR      66  61  82 S3        29.97S
HOLYOKE        FAIR      70  63  78 S7        29.99R
FORT MORGAN    NOT AVBL
$$

COZ086-089-092>099-251200-
...SOUTHEAST COLORADO...

CITY           SKY/WX    TMP DP  RH WIND       PRES   REMARKS
PUEBLO         FAIR      71  54  54 CALM      30.05R
LA JUNTA       FAIR      68  59  73 SE6       30.03R
LAMAR          FAIR      70  62  76 S7        30.00S
SPRINGFIELD      N/A     67  62  84 S15       30.08S
$$




USA.gov is the U.S. government's official web portal to all federal, state and local government web resources and services.